SCP
0 0 0 0 0 0 0 0 0 0 0 0 0 0 0 0 0 0 0 0 0 0
0 0 0 0 0 0 0 0 0 0 0 0 0 0 0 0 0 0 0 0 0 0
0 0 0 0 0 0 0 0 0 0 0 0 0 0 0 0 0 0 0 0 0 0
0 1 0 -0 0 0 0 0 0 0 0 0 0 0 0 0 0 0 0 0 0 0
0 1 1 0 0 0 0 0 0 0 0 0 0 0 0 0 0 0 0 0 0 0
-0 0 0 0 -0 -0 0 0 0 0 0 0 0 0 0 0 0 0 0 0 0 0
0 0 0 0 0 0 -0 -0 -0 0 0 0 0 0 0 0 0 0 0 0 0 0
0 0 0 1 0 0 -0 -0 -0 0 0 0 0 0 0 0 0 0 0 0 0 0
0 -0 0 1 1 1 0 0 -0 0 0 -0 0 0 0 0 0 0 0 0 0 0
1 0 0 0 1 0 0 0 0 0 0 0 0 0 0 0 0 0 0 0 1 0
0 0 0 0 0 0 1 0 0 0 0 0 0 0 0 0 0 1 1 0 1 1
0 0 0 0 0 0 1 1 1 1 0 0 0 0 0 0 0 0 1 1 1 1
-0 -0 0 0 0 0 0 1 1 1 1 0 1 0 0 0 0 0 0 0 1 0
0 0 -0 -0 0 0 0 0 1 1 1 1 0 1 0 0 1 1 0 0 0 1
Wind_Speed_500mb
43 43 42 37 35 39 39 38 39 41 45 49 47 44 34 36 37 34 33 30 27 27
48 46 44 35 33 40 42 40 40 44 49 51 50 48 34 35 33 32 33 30 30 30
49 49 47 46 39 37 41 33 34 32 31 46 49 48 39 40 34 34 35 30 31 28
41 32 39 54 40 38 35 29 27 27 25 34 43 41 43 40 35 33 33 30 28 28
34 33 36 24 40 35 30 25 25 28 28 31 36 40 43 39 39 34 32 29 26 25
28 22 15 20 30 29 31 29 16 25 30 33 39 45 43 41 39 40 38 35 29 27
17 18 16 11 26 32 33 34 37 21 23 39 42 46 44 42 40 39 42 40 33 31
26 26 20 14 18 30 39 36 34 37 36 39 46 50 50 45 43 41 42 43 38 36
29 35 33 24 22 28 43 41 39 39 44 43 50 48 52 47 43 44 47 49 45 43
32 33 28 26 35 32 37 41 43 42 42 50 50 53 51 49 47 49 50 51 51 49
37 37 32 27 24 34 41 44 44 46 46 45 52 55 49 53 53 55 50 51 53 53
44 44 43 38 34 30 32 41 48 49 50 52 52 55 69 62 59 61 58 55 52 56
45 40 42 44 40 40 35 38 45 55 54 49 51 50 56 64 59 62 57 58 61 58
56 50 42 41 40 37 41 38 40 52 55 56 50 55 47 63 69 64 58 54 50 59
Wind_Direction_500mb
250 250 257 257 260 265 268 268 264 264 258 245 238 240 243 231 231 227 231 227 229 234
247 249 253 256 259 266 267 267 267 268 259 241 228 231 237 229 222 232 225 231 235 230
242 247 256 256 258 267 267 262 265 258 241 221 219 223 229 222 224 235 237 234 233 233
256 245 276 265 268 277 270 258 255 234 230 220 218 221 215 217 225 229 230 226 233 227
249 251 238 295 268 262 263 253 239 220 228 225 220 212 216 218 222 224 219 217 227 213
248 245 230 222 244 258 254 236 227 224 231 228 224 219 222 219 223 223 219 220 228 222
278 263 265 236 241 255 258 254 244 230 242 231 226 226 226 221 227 228 221 221 229 227
282 303 306 249 261 263 264 262 259 244 235 229 225 224 224 226 234 232 229 227 228 228
315 311 314 285 267 249 252 258 252 254 244 237 232 230 229 232 238 237 231 230 228 232
337 347 330 303 265 262 256 258 256 255 251 241 236 232 230 229 245 239 238 233 232 233
324 331 336 336 313 268 256 254 259 260 256 251 241 227 221 229 241 233 238 239 237 236
309 313 317 323 322 317 287 258 251 259 257 253 250 238 231 236 237 231 232 238 239 238
303 299 298 302 305 308 307 283 259 250 253 253 256 250 235 228 234 236 237 239 241 241
294 294 292 284 290 293 296 295 275 256 250 250 251 250 243 233 234 238 242 242 242 241
Wind_Speed_850mb
43 43 42 37 35 39 39 38 39 41 45 49 47 44 34 36 37 34 33 30 27 27
48 46 44 35 33 40 42 40 40 44 49 51 50 48 34 35 33 32 33 30 30 30
49 49 47 46 39 37 41 33 34 32 31 46 49 48 39 40 34 34 35 30 31 28
41 32 39 54 40 38 35 29 27 27 25 34 43 41 43 40 35 33 33 30 28 28
34 33 36 24 40 35 30 25 25 28 28 31 36 40 43 39 39 34 32 29 26 25
28 22 15 20 30 29 31 29 16 25 30 33 39 45 43 41 39 40 38 35 29 27
17 18 16 11 26 32 33 34 37 21 23 39 42 46 44 42 40 39 42 40 33 31
26 26 20 14 18 30 39 36 34 37 36 39 46 50 50 45 43 41 42 43 38 36
29 35 33 24 22 28 43 41 39 39 44 43 50 48 52 47 43 44 47 49 45 43
32 33 28 26 35 32 37 41 43 42 42 50 50 53 51 49 47 49 50 51 51 49
37 37 32 27 24 34 41 44 44 46 46 45 52 55 49 53 53 55 50 51 53 53
44 44 43 38 34 30 32 41 48 49 50 52 52 55 69 62 59 61 58 55 52 56
45 40 42 44 40 40 35 38 45 55 54 49 51 50 56 64 59 62 57 58 61 58
56 50 42 41 40 37 41 38 40 52 55 56 50 55 47 63 69 64 58 54 50 59
Wind_Direction_850mb
250 250 257 257 260 265 268 268 264 264 258 245 238 240 243 231 231 227 231 227 229 234
247 249 253 256 259 266 267 267 267 268 259 241 228 231 237 229 222 232 225 231 235 230
242 247 256 256 258 267 267 262 265 258 241 221 219 223 229 222 224 235 237 234 233 233
256 245 276 265 268 277 270 258 255 234 230 220 218 221 215 217 225 229 230 226 233 227
249 251 238 295 268 262 263 253 239 220 228 225 220 212 216 218 222 224 219 217 227 213
248 245 230 222 244 258 254 236 227 224 231 228 224 219 222 219 223 223 219 220 228 222
278 263 265 236 241 255 258 254 244 230 242 231 226 226 226 221 227 228 221 221 229 227
282 303 306 249 261 263 264 262 259 244 235 229 225 224 224 226 234 232 229 227 228 228
315 311 314 285 267 249 252 258 252 254 244 237 232 230 229 232 238 237 231 230 228 232
337 347 330 303 265 262 256 258 256 255 251 241 236 232 230 229 245 239 238 233 232 233
324 331 336 336 313 268 256 254 259 260 256 251 241 227 221 229 241 233 238 239 237 236
309 313 317 323 322 317 287 258 251 259 257 253 250 238 231 236 237 231 232 238 239 238
303 299 298 302 305 308 307 283 259 250 253 253 256 250 235 228 234 236 237 239 241 241
294 294 292 284 290 293 296 295 275 256 250 250 251 250 243 233 234 238 242 242 242 241